Location: Prague
(50.0830°N, 14.4670°E)
Time: 03:07:04
(UTC+01:00)

AO-7 - Pass Details

Date: 12 December 2021
Orbit: 1440 x 1459 km, 101.9° (Epoch: 28 January)

Event Time Altitude Azimuth Distance (km) Brightness Sun altitude
Rises 04:14:00 0° 20° (NNE) 4,552 ? -33.7°
Reaches altitude 10° 04:16:50 10° 24° (NNE) 3,572 ? -33.2°
Maximum altitude 04:25:07 64° 105° (ESE) 1,588 ? -31.9°
Drops below altitude 10° 04:33:22 10° 186° (S) 3,566 ? -30.6°
Sets 04:36:11 0° 190° (S) 4,543 ? -30.1°
